Marathon, FL

3:58 AM EDT on September 26, 2016 (GMT -0400)
Florida Keys Marathon

Weather History for KMTH - April, 2014

Change the Weather History Date:

Sunday, April 27, 2014

  Actual Average Record
Temperature  
Mean Temperature 81 °F 78 °F  
Max Temperature 88 °F 84 °F 92 °F (2015)
Min Temperature 74 °F 73 °F 73 °F (2001)
Degree Days  
Heating Degree Days 0 0  
Month to date heating degree days 0 0  
Since 1 July heating degree days 35 81  
Cooling Degree Days 16 13  
Month to date cooling degree days 377 328  
Year to date cooling degree days 1203 993  
Growing Degree Days 30 (Base 50)    
Moisture  
Dew Point 72 °F    
Average Humidity 76    
Maximum Humidity 87    
Minimum Humidity 65    
Precipitation  
Precipitation 0.00 in 0.08 in 0.03 in (1999)
Month to date precipitation 0.25 2.16  
Year to date precipitation 5.51 8.37  
Snow  
Snow 0.00 in - - ()
Month to date snowfall 0.0  
Since 1 July snowfall 0.0  
Snow Depth 0.00 in    
Sea Level Pressure  
Sea Level Pressure 29.97 in    
Wind  
Wind Speed 8 mph (East)    
Max Wind Speed 15 mph    
Max Gust Speed 20 mph    
Visibility 10 miles    
Events      
T = Trace of Precipitation, MM = Missing Value Source: NWS Daily Summary

Daily Weather History Graph

Daily Weather History Graph

Search for Another Location

Airport or City:

Trip Planner

Search our weather history database for the weather conditions in past years. The results will help you decide how hot, cold, wet, or windy it might be!

Date:

Astronomy

Apr. 27, 2014 Rise Set
Actual Time 6:51 AM EDT 7:52 PM EDT
Civil Twilight 6:28 AM EDT 8:15 PM EDT
Nautical Twilight 6:00 AM EDT 8:44 PM EDT
Astronomical Twilight 5:31 AM EDT 9:12 PM EDT
Moon 5:39 AM EDT (4/27) 6:33 PM EDT (4/27)
Length of Visible Light 13h 47m
Length of Day
13h 00m
Waning Crescent, 3% of the Moon is Illuminated
Apr 27
Waning Crescent
Apr 29
New
May 6
First Quarter
May 14
Full
May 21
Last Quarter

Hourly Weather History & Observations

Time (EDT) Temp. Heat Index Dew Point Humidity Pressure Visibility Wind Dir Wind Speed Gust Speed Precip Events Conditions
12:53 AM 75.9 °F - 69.1 °F 79% 30.00 in 10.0 mi Calm Calm - N/A   Clear
1:53 AM 73.9 °F - 69.1 °F 85% 29.99 in 9.0 mi Calm Calm - N/A   Clear
2:53 AM 73.9 °F - 66.9 °F 79% 29.96 in 10.0 mi Calm Calm - N/A   Clear
3:53 AM 77.0 °F - 70.0 °F 79% 29.96 in 10.0 mi Variable 4.6 mph - N/A   Clear
5:53 AM 77.0 °F - 71.1 °F 82% 29.96 in 10.0 mi East 8.1 mph - N/A   Clear
6:53 AM 78.1 °F - 71.1 °F 79% 29.98 in 10.0 mi East 6.9 mph - N/A   Clear
7:53 AM 80.1 °F 83.8 °F 72.0 °F 76% 29.99 in 10.0 mi East 4.6 mph - N/A   Clear
8:53 AM 82.0 °F 87.4 °F 73.0 °F 74% 29.99 in 10.0 mi East 8.1 mph - N/A   Clear
9:53 AM 84.0 °F 91.2 °F 73.9 °F 72% 29.99 in 10.0 mi ESE 9.2 mph - N/A   Clear
10:53 AM 84.0 °F 91.2 °F 73.9 °F 72% 30.01 in 10.0 mi ESE 11.5 mph 18.4 mph N/A   Partly Cloudy
12:53 PM 86.0 °F 93.8 °F 73.9 °F 67% 30.00 in 10.0 mi ESE 9.2 mph - N/A   Partly Cloudy
2:53 PM 87.1 °F 96.3 °F 75.0 °F 67% 29.97 in 10.0 mi ESE 10.4 mph - N/A   Partly Cloudy
4:53 PM 84.9 °F 91.4 °F 73.0 °F 67% 29.94 in 10.0 mi East 9.2 mph - N/A   Clear
5:53 PM 84.0 °F 90.2 °F 73.0 °F 69% 29.94 in 10.0 mi East 8.1 mph - N/A   Clear
6:53 PM 82.0 °F 86.7 °F 72.0 °F 71% 29.93 in 10.0 mi Variable 6.9 mph - N/A   Clear
7:53 PM 80.1 °F 83.6 °F 71.1 °F 74% 29.94 in 10.0 mi East 9.2 mph - N/A   Clear
8:53 PM 80.1 °F 83.2 °F 70.0 °F 71% 29.96 in 10.0 mi East 11.5 mph - N/A   Clear
9:53 PM 79.0 °F - 71.1 °F 77% 29.97 in 10.0 mi East 10.4 mph - N/A   Clear
10:53 PM 79.0 °F - 71.1 °F 77% 29.99 in 10.0 mi East 9.2 mph - N/A   Clear
11:53 PM 79.0 °F - 72.0 °F 79% 29.98 in 10.0 mi East 9.2 mph - N/A   Clear